Wind_Speed
2 6 7 10 8 12 18 14 9 3 12 13 14 15 16 14 13 14 15 15 13 14 14 13 13 13 13 13 13 12 13 14 13 11 11 10 11 11 11 11 11 11 11
2 6 5 7 6 8 18 11 7 6 4 9 12 12 12 13 11 13 13 13 11 12 12 11 12 11 11 12 11 10 10 11 11 10 9 9 10 11 10 10 9 10 9
2 5 3 6 7 4 5 5 5 5 4 4 6 9 8 8 10 12 13 14 12 11 11 11 10 10 10 10 9 9 8 8 7 8 8 9 9 9 10 10 9 8 7
4 4 3 8 9 6 4 3 2 2 2 3 2 4 8 9 7 8 8 11 11 12 11 9 8 8 8 8 7 6 7 6 5 5 6 8 8 8 9 8 9 8 6
5 3 3 9 8 7 5 2 1 3 1 1 1 3 3 2 2 3 4 5 7 9 8 6 6 7 6 5 4 4 4 4 5 4 3 6 6 6 7 8 8 7 4
5 4 2 5 6 5 5 3 4 4 5 2 1 3 5 5 3 2 3 3 5 6 8 8 7 5 4 3 3 4 4 4 3 3 3 3 5 5 5 6 6 5 3
4 4 3 3 1 4 4 4 4 4 6 6 5 6 6 8 9 9 5 5 5 5 6 7 7 7 7 7 7 6 6 5 4 4 4 3 3 5 4 6 6 5 2
5 3 2 2 0 1 2 3 6 8 6 8 7 7 8 8 8 8 8 8 6 7 6 6 6 7 7 7 6 7 7 6 5 4 4 4 6 6 6 6 8 7 3
4 2 1 1 1 3 3 5 8 6 6 7 8 8 9 10 10 9 9 9 7 9 8 7 6 7 7 7 7 6 6 6 5 5 4 4 5 7 8 8 8 7 6
3 2 1 0 2 2 3 5 5 6 6 6 7 8 9 10 10 9 9 9 9 9 9 9 8 7 7 7 7 8 8 7 5 4 4 3 3 6 8 8 8 8 8
4 3 2 0 1 2 2 3 4 5 5 6 6 6 8 8 9 8 9 8 8 9 9 10 10 9 9 9 9 9 8 9 8 6 4 4 2 4 8 9 10 10 11
5 4 3 1 1 1 2 3 3 4 4 5 5 6 7 8 9 10 10 9 8 8 9 11 12 13 13 13 12 10 9 8 8 8 7 6 5 5 7 9 10 10 12
7 5 3 2 1 0 1 2 2 3 4 4 4 5 6 7 7 8 8 8 9 9 9 10 12 13 14 15 15 14 12 11 10 10 8 9 10 7 8 11 14 15 16
8 7 5 4 3 2 1 1 2 3 4 4 5 6 7 7 7 7 8 9 9 9 9 10 11 10 10 12 13 13 13 13 13 12 11 10 10 11 12 12 13 15 17
8 7 6 5 4 2 1 1 2 3 4 6 7 8 9 9 10 12 12 12 11 11 11 10 10 10 11 12 13 13 13 15 14 14 12 12 12 12 13 14 15 17 17
12 10 9 6 5 3 2 2 2 4 5 7 7 9 10 11 12 13 13 14 14 14 15 15 14 13 12 12 11 13 15 15 15 16 17 16 14 14 15 15 16 19 20
14 12 10 8 6 4 2 2 3 4 6 7 8 10 11 11 12 13 14 15 16 16 16 16 15 14 13 13 12 11 10 11 13 15 16 19 18 18 16 16 16 17 19
14 12 10 8 6 5 3 2 2 4 6 7 8 10 11 12 14 15 16 17 18 18 19 19 19 18 18 16 15 13 10 8 7 9 10 14 17 19 19 19 20 21 21
17 15 13 10 8 6 5 3 2 3 4 5 7 8 10 12 14 16 18 19 20 21 21 23 23 23 22 19 18 15 10 7 3 6 7 8 10 13 17 20 23 26 25
18 16 13 11 8 7 7 5 3 2 3 4 5 8 10 12 14 16 17 19 20 22 22 24 25 26 27 26 22 15 8 6 2 14 12 10 12 13 14 16 19 20 22
20 17 13 10 9 8 7 6 4 2 2 3 5 8 9 11 13 15 16 18 20 21 23 24 25 27 27 29 28 22 11 5 7 22 14 16 16 15 16 18 19 21 22
22 18 15 12 10 9 8 7 6 3 1 2 5 7 8 9 10 12 14 16 18 19 20 22 25 28 30 32 32 24 16 6 23 9 21 22 20 21 20 19 19 20 21
23 20 16 13 11 9 8 7 6 4 2 1 3 5 6 8 9 11 13 14 16 18 20 22 24 26 29 30 30 24 12 12 35 23 31 29 29 26 24 23 23 22 22
25 22 17 14 12 11 9 7 5 3 2 1 1 3 5 6 8 9 10 11 13 15 17 20 22 24 25 28 28 27 23 21 13 19 36 37 37 33 29 27 26 25 26
27 22 19 15 14 11 9 7 5 4 3 2 2 4 4 5 6 7 8 9 11 13 15 17 19 22 23 25 26 26 26 22 14 14 20 46 41 39 37 31 31 29 30
27 24 20 16 14 12 10 8 7 6 5 4 4 4 5 5 5 5 5 6 8 10 12 14 17 18 20 21 22 23 24 23 23 19 21 29 34 45 41 38 35 33 32
Wind_Direction
66 124 129 111 63 57 45 54 62 84 76 64 61 58 56 54 58 50 51 53 51 55 60 57 61 58 55 57 58 63 60 64 72 75 74 68 64 62 62 62 61 58 68
61 133 147 125 86 79 36 67 66 70 93 98 75 63 60 51 62 63 58 57 51 55 53 57 56 57 60 60 57 59 61 62 60 63 64 62 62 64 62 55 57 59 69
70 145 137 156 113 118 98 89 73 72 79 79 108 80 74 69 62 59 55 60 55 48 57 52 49 51 56 58 54 56 62 63 58 57 54 55 46 46 46 45 47 58 67
90 131 181 173 136 151 149 127 78 53 45 34 51 71 64 54 48 54 56 59 54 57 58 52 60 44 47 51 52 45 52 59 62 52 51 46 39 39 41 34 33 43 72
84 96 216 192 150 157 159 137 55 348 205 94 30 41 19 10 29 40 41 40 37 34 42 53 51 51 39 44 45 44 43 44 42 39 40 48 38 29 30 33 30 31 92
114 98 112 202 194 193 192 226 276 326 360 43 347 334 323 311 311 293 322 339 1 7 20 16 16 18 13 12 15 10 13 23 20 17 10 30 23 19 16 17 21 27 66
138 103 83 79 150 206 234 253 247 311 307 323 322 327 330 333 332 317 314 304 320 328 339 349 2 359 354 348 349 352 353 355 352 351 345 323 333 346 349 356 5 11 18
122 142 143 102 71 285 294 254 272 279 274 292 307 312 315 318 324 330 326 309 321 303 295 316 331 340 344 346 344 336 332 334 340 327 331 324 313 315 331 336 345 351 310
130 141 124 63 349 358 320 295 291 302 297 291 296 303 306 309 311 311 309 309 297 302 293 289 312 315 323 334 335 329 320 314 322 325 322 333 327 311 314 323 328 330 327
131 130 113 20 7 353 324 317 310 305 299 300 302 304 306 310 310 310 303 302 302 298 304 312 308 311 310 312 316 318 318 313 306 315 326 314 329 330 311 307 311 314 312
170 170 168 181 331 329 323 328 336 333 322 319 315 306 306 308 310 313 311 307 299 295 291 296 301 304 302 302 302 300 302 309 313 313 310 305 303 335 320 318 312 310 308
182 186 187 193 237 299 312 327 331 328 326 322 316 316 309 309 309 308 311 311 309 304 294 281 278 278 280 284 282 286 290 296 303 303 297 288 288 320 319 318 317 323 315
191 190 183 187 208 316 327 346 345 351 0 351 346 341 345 344 336 325 316 303 300 297 288 282 277 279 278 278 282 282 283 285 292 295 293 290 279 284 308 313 314 309 307
189 188 187 186 186 192 178 68 32 32 41 35 30 24 17 8 3 358 355 352 345 337 327 309 299 299 299 294 292 290 289 285 282 280 274 275 276 277 286 297 297 294 304
195 194 186 179 174 169 134 89 67 61 57 52 46 42 38 31 24 23 19 14 8 4 358 351 342 331 315 300 301 295 291 285 281 279 275 268 262 266 273 281 282 295 302
196 195 192 187 184 175 161 124 99 75 67 58 51 46 40 35 30 26 22 18 15 12 8 4 359 353 344 334 323 306 294 289 285 279 273 270 270 272 271 276 278 278 286
201 199 198 195 196 191 179 149 100 81 66 54 47 42 37 34 31 28 26 22 20 18 13 9 5 1 354 352 344 332 317 304 290 282 278 273 271 263 261 269 275 282 285
205 205 203 203 204 203 200 171 100 70 57 46 43 39 35 32 30 27 26 24 23 20 16 9 9 7 6 4 360 354 345 330 318 301 293 282 278 274 271 266 266 276 279
207 205 205 207 208 209 204 187 141 83 62 50 43 39 34 30 26 23 22 21 19 17 14 13 8 7 8 10 10 4 356 358 359 4 320 316 301 293 286 278 269 270 274
209 207 208 212 213 208 203 194 174 126 87 66 53 46 38 30 25 21 18 15 13 13 12 11 10 7 8 8 12 19 17 360 57 17 360 338 327 319 307 299 292 284 282
212 210 209 213 214 210 204 194 189 157 109 74 53 44 35 29 22 18 16 14 13 12 13 11 11 9 8 7 4 9 32 66 60 349 1 354 349 338 330 319 312 305 290
214 212 213 215 215 212 208 204 204 194 148 59 48 40 30 26 21 18 15 15 16 17 16 15 14 14 16 15 16 12 359 8 334 5 1 355 354 346 338 335 329 319 312
216 215 216 218 216 214 210 206 201 199 190 61 48 34 29 25 20 19 19 19 18 18 18 19 20 18 18 20 22 27 8 340 344 336 348 353 353 350 347 342 336 334 328
216 217 217 218 216 215 211 205 199 198 211 228 349 7 18 19 17 18 20 21 21 22 23 24 24 23 21 20 19 18 16 5 350 331 343 346 348 350 350 345 340 335 333
216 216 217 219 217 217 215 215 215 225 238 272 318 337 351 358 2 11 19 25 26 26 26 26 24 23 21 20 17 12 9 6 1 333 327 340 343 346 346 346 343 337 332
216 217 218 220 219 222 223 226 234 244 259 273 292 311 324 328 336 350 8 21 24 26 24 22 21 18 17 16 14 9 5 360 348 339 323 332 334 338 341 343 342 339 332
Height
1590 1590 1590 1590 1590 1589 1588 1587 1585 1584 1584 1583 1583 1582 1582 1580 1579 1578 1578 1577 1577 1577 1575 1574 1573 1571 1571 1570 1568 1569 1568 1566 1567 1567 1566 1566 1565 1565 1565 1563 1563 1563 1562
1588 1588 1589 1589 1591 1590 1589 1588 1586 1586 1584 1584 1584 1584 1582 1581 1581 1580 1579 1579 1579 1578 1576 1576 1574 1573 1572 1570 1571 1571 1569 1568 1568 1568 1569 1568 1567 1567 1566 1566 1565 1564 1564
1587 1588 1588 1589 1590 1590 1589 1588 1588 1587 1586 1585 1584 1584 1583 1583 1581 1580 1580 1579 1579 1579 1576 1577 1575 1575 1574 1573 1572 1571 1571 1570 1571 1570 1570 1568 1569 1568 1567 1567 1567 1566 1565
1586 1587 1588 1587 1587 1588 1589 1588 1588 1588 1587 1586 1584 1583 1583 1583 1582 1581 1581 1580 1579 1577 1577 1577 1576 1576 1574 1574 1573 1573 1572 1571 1571 1571 1571 1570 1569 1569 1568 1568 1568 1567 1567
1586 1586 1587 1587 1586 1587 1588 1588 1588 1588 1587 1586 1585 1584 1583 1582 1582 1582 1581 1580 1579 1577 1576 1576 1575 1575 1576 1575 1573 1573 1573 1572 1571 1571 1571 1569 1570 1570 1569 1569 1569 1568 1568
1586 1587 1587 1586 1586 1586 1586 1587 1588 1588 1587 1586 1585 1584 1583 1582 1580 1580 1580 1579 1578 1578 1577 1576 1575 1575 1574 1573 1572 1572 1572 1571 1571 1571 1571 1570 1571 1570 1570 1570 1570 1569 1568
1585 1585 1586 1586 1585 1585 1585 1585 1585 1586 1586 1584 1583 1583 1582 1580 1580 1579 1578 1577 1577 1577 1576 1576 1575 1574 1574 1574 1573 1572 1572 1571 1571 1571 1570 1571 1572 1572 1570 1570 1571 1569 1569
1585 1585 1586 1585 1585 1584 1584 1584 1584 1583 1583 1583 1582 1581 1580 1579 1578 1578 1577 1576 1576 1575 1575 1575 1574 1574 1574 1572 1571 1571 1571 1571 1571 1571 1571 1570 1571 1572 1571 1570 1570 1569 1569
1584 1585 1585 1584 1584 1583 1583 1583 1582 1582 1581 1581 1580 1579 1578 1578 1577 1576 1575 1575 1574 1573 1572 1572 1573 1573 1572 1571 1571 1571 1570 1570 1570 1571 1570 1570 1571 1571 1570 1569 1570 1569 1568
1584 1584 1584 1583 1584 1583 1583 1583 1582 1581 1580 1579 1578 1577 1577 1575 1575 1574 1573 1573 1572 1571 1571 1570 1570 1571 1571 1571 1570 1570 1570 1570 1570 1569 1569 1570 1569 1570 1568 1568 1569 1568 1567
1584 1583 1584 1583 1583 1582 1582 1582 1581 1580 1578 1578 1577 1577 1575 1574 1573 1572 1571 1571 1570 1569 1568 1568 1569 1569 1569 1569 1569 1569 1568 1569 1569 1569 1568 1569 1568 1567 1567 1569 1568 1566 1566
1583 1583 1583 1582 1582 1582 1582 1581 1580 1579 1577 1577 1577 1575 1574 1572 1571 1570 1569 1569 1568 1567 1566 1566 1566 1566 1567 1567 1567 1568 1567 1567 1567 1568 1568 1567 1566 1566 1566 1566 1566 1565 1565
1581 1583 1581 1581 1582 1581 1581 1580 1580 1579 1577 1577 1576 1575 1573 1572 1570 1569 1569 1568 1566 1565 1564 1563 1564 1564 1563 1563 1564 1564 1564 1564 1565 1566 1566 1566 1565 1565 1565 1565 1565 1564 1564
1580 1581 1581 1581 1581 1580 1580 1580 1579 1578 1577 1577 1576 1574 1571 1571 1571 1570 1567 1565 1565 1564 1562 1561 1561 1560 1560 1560 1561 1561 1561 1561 1561 1562 1563 1563 1563 1563 1563 1563 1563 1562 1562
1579 1580 1580 1581 1581 1579 1579 1579 1578 1576 1576 1576 1574 1573 1572 1571 1570 1568 1566 1565 1565 1562 1561 1559 1558 1558 1558 1558 1558 1558 1557 1557 1557 1557 1558 1560 1560 1560 1559 1560 1560 1559 1559
1578 1579 1579 1579 1578 1579 1579 1578 1577 1576 1575 1575 1574 1572 1571 1569 1568 1567 1567 1565 1563 1561 1559 1558 1557 1556 1556 1555 1554 1553 1553 1553 1554 1553 1553 1555 1556 1556 1556 1556 1555 1555 1555
1576 1577 1578 1577 1578 1578 1577 1577 1576 1576 1575 1575 1573 1571 1570 1569 1568 1567 1566 1564 1562 1560 1559 1559 1557 1556 1555 1553 1552 1551 1550 1551 1550 1549 1548 1549 1551 1551 1550 1550 1550 1551 1551
1573 1574 1574 1576 1577 1577 1577 1576 1576 1575 1574 1573 1572 1571 1570 1569 1569 1567 1564 1562 1561 1559 1557 1556 1554 1553 1552 1552 1551 1549 1547 1547 1546 1545 1544 1545 1545 1545 1546 1545 1546 1546 1547
1570 1571 1573 1574 1574 1575 1575 1575 1575 1574 1573 1573 1572 1570 1570 1569 1567 1564 1563 1561 1559 1557 1556 1554 1551 1550 1550 1550 1548 1546 1544 1543 1542 1542 1541 1541 1541 1541 1541 1541 1540 1540 1541
1568 1569 1571 1572 1573 1573 1574 1574 1573 1573 1573 1572 1571 1570 1569 1567 1565 1563 1561 1560 1558 1556 1554 1552 1550 1547 1546 1545 1545 1544 1542 1540 1539 1539 1539 1539 1538 1537 1536 1536 1535 1535 1535
1565 1567 1569 1570 1571 1571 1571 1571 1571 1572 1571 1571 1569 1568 1566 1565 1564 1562 1561 1559 1557 1555 1554 1552 1550 1547 1545 1542 1539 1539 1538 1537 1537 1539 1538 1537 1536 1534 1533 1531 1531 1530 1529
1562 1564 1567 1568 1569 1569 1569 1570 1570 1570 1570 1569 1568 1566 1565 1565 1564 1563 1561 1559 1558 1557 1556 1553 1550 1547 1544 1541 1537 1534 1533 1536 1535 1536 1536 1535 1533 1531 1529 1528 1527 1525 1524
1559 1562 1563 1565 1566 1567 1568 1569 1570 1570 1569 1568 1567 1566 1565 1564 1563 1562 1561 1559 1558 1557 1555 1553 1550 1548 1545 1543 1541 1541 1540 1540 1530 1529 1530 1530 1528 1527 1525 1524 1522 1521 1520
1554 1557 1560 1562 1564 1566 1567 1568 1568 1568 1568 1568 1567 1565 1564 1564 1563 1562 1561 1559 1558 1557 1555 1553 1551 1549 1547 1543 1542 1542 1543 1542 1538 1529 1525 1524 1524 1523 1522 1521 1518 1517 1515
1549 1554 1557 1559 1561 1564 1565 1566 1566 1567 1566 1565 1565 1564 1563 1563 1562 1561 1560 1559 1558 1556 1555 1553 1551 1549 1548 1546 1543 1542 1541 1540 1539 1537 1529 1519 1521 1520 1519 1517 1515 1513 1510
1547 1551 1554 1557 1559 1561 1562 1563 1564 1564 1564 1563 1562 1562 1562 1562 1562 1561 1560 1559 1558 1556 1555 1553 1551 1549 1548 1546 1545 1543 1541 1539 1538 1535 1531 1527 1521 1513 1513 1514 1511 1509 1507